Weather History for KRYV - April, 2014

Change the Weather History Date:

Tuesday, April 1, 2014

  Actual Average Record
Temperature  
Mean Temperature 39 °F -  
Max Temperature 52 °F 51 °F 81 °F (1946)
Min Temperature 26 °F 30 °F 10 °F (1972)
Degree Days  
Heating Degree Days 26    
Moisture  
Dew Point 25 °F    
Average Humidity 64    
Maximum Humidity 75    
Minimum Humidity 51    
Precipitation  
Precipitation 0.00 in - - ()
Sea Level Pressure  
Sea Level Pressure 29.81 in    
Wind  
Wind Speed 15 mph (WSW)    
Max Wind Speed 21 mph    
Max Gust Speed 34 mph    
Visibility 10 miles    
Events      
Averages and records for this station are not official NWS values.
T = Trace of Precipitation, MM = Missing Value Source: NWS Daily Summary

Daily Weather History Graph

Daily Weather History Graph

Search for Another Location

Airport or City:

Trip Planner

Search our weather history database for the weather conditions in past years. The results will help you decide how hot, cold, wet, or windy it might be!

Date:

Astronomy

Apr. 01, 2014 Rise Set
Actual Time 6:36 AM CDT 7:21 PM CDT
Civil Twilight 6:08 AM CDT 7:50 PM CDT
Nautical Twilight 5:34 AM CDT 8:24 PM CDT
Astronomical Twilight 4:58 AM CDT 8:59 PM CDT
Moon 7:36 AM CDT (4/1) 9:47 PM CDT (4/1)
Length of Visible Light 13h 42m
Length of Day
12h 44m
Waxing Crescent, 5% of the Moon is Illuminated
Apr 1
Waxing Crescent
Apr 7
First Quarter
Apr 15
Full
Apr 22
Last Quarter
Apr 29
New

Hourly Weather History & Observations

Time (CDT) Temp. Windchill Dew Point Humidity Pressure Visibility Wind Dir Wind Speed Gust Speed Precip Events Conditions
12:15 AM 51.8 °F - 39.4 °F 63% 29.59 in 10.0 mi South 12.7 mph 20.7 mph N/A   Scattered Clouds
12:35 AM 51.3 °F - 39.6 °F 64% 29.58 in 10.0 mi South 13.8 mph - N/A   Clear
1:15 AM 52.5 °F - 40.5 °F 64% 29.58 in 10.0 mi SSW 18.4 mph - N/A   Scattered Clouds
1:35 AM 52.3 °F - 41.4 °F 66% 29.59 in 10.0 mi SSW 17.3 mph 23.0 mph N/A   Mostly Cloudy
1:55 AM 51.3 °F - 40.5 °F 67% 29.60 in 10.0 mi SW 19.6 mph 33.4 mph N/A   Overcast
2:15 AM 48.4 °F - 33.8 °F 57% 29.61 in 10.0 mi SW 18.4 mph 34.5 mph N/A   Overcast
2:35 AM 45.0 °F 37.4 °F 32.0 °F 60% 29.62 in 10.0 mi SW 18.4 mph 26.5 mph N/A   Scattered Clouds
2:55 AM 43.3 °F 37.2 °F 31.5 °F 63% 29.62 in 10.0 mi SW 11.5 mph 17.3 mph N/A   Clear
3:15 AM 41.9 °F 35.9 °F 29.5 °F 61% 29.62 in 10.0 mi WSW 10.4 mph 16.1 mph N/A   Clear
3:35 AM 40.1 °F 34.7 °F 29.1 °F 65% 29.63 in 10.0 mi WSW 8.1 mph - N/A   Clear
3:55 AM 37.4 °F 27.5 °F 27.0 °F 66% 29.63 in 10.0 mi WSW 18.4 mph 24.2 mph N/A   Scattered Clouds
4:15 AM 35.1 °F 24.1 °F 25.9 °F 69% 29.64 in 10.0 mi WSW 19.6 mph 29.9 mph N/A   Scattered Clouds
4:35 AM 33.3 °F 23.7 °F 24.8 °F 71% 29.64 in 10.0 mi SW 13.8 mph 28.8 mph N/A   Mostly Cloudy
4:55 AM 32.5 °F 22.7 °F 24.8 °F 73% 29.64 in 10.0 mi SW 13.8 mph 19.6 mph N/A   Overcast
5:15 AM 32.4 °F 22.5 °F 25.3 °F 75% 29.65 in 10.0 mi SW 13.8 mph 21.9 mph N/A   Overcast
5:35 AM 32.0 °F 22.1 °F 24.8 °F 75% 29.65 in 10.0 mi SW 13.8 mph 20.7 mph N/A   Overcast
5:55 AM 31.8 °F 21.4 °F 23.4 °F 71% 29.65 in 10.0 mi WSW 15.0 mph 24.2 mph N/A   Overcast
6:15 AM 31.5 °F 20.5 °F 23.0 °F 71% 29.66 in 10.0 mi WSW 16.1 mph 21.9 mph N/A   Overcast
6:35 AM 31.1 °F 18.6 °F 22.6 °F 71% 29.67 in 10.0 mi SW 20.7 mph 31.1 mph N/A   Overcast
6:55 AM 30.2 °F 17.4 °F 22.1 °F 72% 29.69 in 10.0 mi SW 20.7 mph 27.6 mph N/A   Overcast
7:15 AM 30.0 °F 17.9 °F 21.7 °F 71% 29.70 in 10.0 mi SW 18.4 mph 25.3 mph N/A   Overcast
7:35 AM 28.8 °F 16.2 °F 21.0 °F 73% 29.70 in 10.0 mi SW 18.4 mph 23.0 mph N/A   Overcast
7:55 AM 28.0 °F 14.6 °F 20.1 °F 72% 29.71 in 10.0 mi SW 20.7 mph 27.6 mph N/A   Overcast
8:15 AM 27.0 °F 13.5 °F 19.4 °F 73% 29.73 in 10.0 mi WSW 19.6 mph 27.6 mph N/A   Overcast
8:35 AM 26.8 °F 12.9 °F 19.4 °F 74% 29.73 in 10.0 mi WSW 20.7 mph 27.6 mph N/A   Overcast
8:55 AM 26.4 °F 13.2 °F 19.4 °F 75% 29.73 in 10.0 mi WSW 18.4 mph 26.5 mph N/A   Overcast
9:15 AM 26.8 °F 14.1 °F 19.4 °F 74% 29.74 in 10.0 mi SW 17.3 mph 20.7 mph N/A   Overcast
9:35 AM 27.1 °F 15.4 °F 19.8 °F 74% 29.74 in 10.0 mi WSW 15.0 mph 20.7 mph N/A   Overcast
9:55 AM 27.3 °F 13.6 °F 19.4 °F 72% 29.75 in 10.0 mi WSW 20.7 mph 29.9 mph N/A   Overcast
10:15 AM 28.4 °F 16.2 °F 19.9 °F 71% 29.75 in 10.0 mi WSW 17.3 mph 21.9 mph N/A   Overcast
10:35 AM 28.8 °F 15.9 °F 19.8 °F 69% 29.76 in 10.0 mi WSW 19.6 mph 26.5 mph N/A   Overcast
10:55 AM 28.6 °F 16.0 °F 19.4 °F 69% 29.77 in 10.0 mi WSW 18.4 mph 24.2 mph N/A   Overcast
11:15 AM 29.3 °F 17.7 °F 19.4 °F 67% 29.77 in 10.0 mi WSW 16.1 mph 23.0 mph N/A   Overcast
11:35 AM 29.8 °F 18.4 °F 18.9 °F 64% 29.78 in 10.0 mi WSW 16.1 mph 27.6 mph N/A   Overcast
11:55 AM 30.2 °F 17.8 °F 19.4 °F 64% 29.80 in 10.0 mi WSW 19.6 mph 27.6 mph N/A   Overcast
12:15 PM 30.7 °F 19.2 °F 19.4 °F 63% 29.81 in 10.0 mi WSW 17.3 mph 25.3 mph N/A   Overcast
12:35 PM 31.1 °F 19.7 °F 19.4 °F 62% 29.82 in 10.0 mi WSW 17.3 mph 25.3 mph N/A   Overcast
12:55 PM 31.6 °F 22.1 °F 19.8 °F 62% 29.82 in 10.0 mi WSW 12.7 mph 23.0 mph N/A   Overcast
1:15 PM 32.0 °F 21.6 °F 20.3 °F 62% 29.83 in 10.0 mi WSW 15.0 mph 26.5 mph N/A   Overcast
1:35 PM 32.0 °F 19.8 °F 20.1 °F 62% 29.84 in 10.0 mi WSW 20.7 mph 28.8 mph N/A   Overcast
1:55 PM 32.2 °F 21.1 °F 20.7 °F 63% 29.84 in 10.0 mi WSW 17.3 mph 25.3 mph N/A   Overcast
2:15 PM 33.1 °F 23.4 °F 21.0 °F 61% 29.85 in 10.0 mi WSW 13.8 mph 21.9 mph N/A   Overcast
2:35 PM 33.8 °F 24.8 °F 21.0 °F 60% 29.86 in 10.0 mi WSW 12.7 mph 27.6 mph N/A   Overcast
2:55 PM 36.3 °F 25.5 °F 22.1 °F 56% 29.86 in 10.0 mi West 20.7 mph 27.6 mph N/A   Mostly Cloudy
3:15 PM 37.6 °F 28.4 °F 22.3 °F 54% 29.86 in 10.0 mi West 16.1 mph 26.5 mph N/A   Scattered Clouds
3:35 PM 38.8 °F 29.1 °F 23.0 °F 53% 29.86 in 10.0 mi West 19.6 mph 26.5 mph N/A   Scattered Clouds
3:55 PM 39.7 °F 30.3 °F 23.7 °F 53% 29.87 in 10.0 mi West 19.6 mph 26.5 mph N/A   Clear
4:15 PM 40.5 °F 31.2 °F 23.9 °F 52% 29.86 in 10.0 mi West 19.6 mph 24.2 mph N/A   Clear
4:35 PM 41.5 °F 34.2 °F 24.8 °F 51% 29.87 in 10.0 mi West 13.8 mph 19.6 mph N/A   Clear
4:55 PM 41.9 °F 34.3 °F 24.8 °F 51% 29.88 in 10.0 mi West 15.0 mph 19.6 mph N/A   Clear
5:15 PM 41.9 °F 34.0 °F 25.0 °F 51% 29.89 in 10.0 mi West 16.1 mph 23.0 mph N/A   Clear
5:35 PM 41.9 °F 34.6 °F 25.0 °F 51% 29.91 in 10.0 mi West 13.8 mph 21.9 mph N/A   Clear
5:55 PM 41.9 °F 36.3 °F 25.7 °F 53% 29.91 in 10.0 mi West 9.2 mph 18.4 mph N/A   Clear
6:15 PM 41.9 °F 35.9 °F 25.5 °F 52% 29.93 in 10.0 mi West 10.4 mph 17.3 mph N/A   Clear
6:35 PM 40.6 °F 33.8 °F 25.0 °F 54% 29.94 in 10.0 mi West 11.5 mph 16.1 mph N/A   Clear
6:55 PM 40.1 °F 34.1 °F 25.3 °F 56% 29.96 in 10.0 mi West 9.2 mph - N/A   Clear
7:15 PM 39.6 °F 33.5 °F 25.5 °F 57% 29.96 in 10.0 mi West 9.2 mph - N/A   Clear
7:35 PM 39.2 °F 33.0 °F 25.7 °F 58% 29.96 in 10.0 mi West 9.2 mph - N/A   Clear
7:55 PM 39.4 °F 33.2 °F 25.5 °F 58% 29.98 in 10.0 mi West 9.2 mph - N/A   Clear
8:15 PM 39.0 °F 32.8 °F 25.7 °F 59% 29.99 in 10.0 mi West 9.2 mph - N/A   Clear
8:35 PM 38.5 °F 32.1 °F 25.7 °F 60% 30.00 in 10.0 mi West 9.2 mph - N/A   Clear
8:55 PM 38.1 °F 31.7 °F 25.7 °F 61% 30.01 in 10.0 mi West 9.2 mph - N/A   Clear
9:15 PM 37.4 °F 31.4 °F 25.7 °F 63% 30.01 in 10.0 mi West 8.1 mph - N/A   Clear
9:35 PM 36.5 °F 31.0 °F 26.2 °F 66% 30.02 in 10.0 mi West 6.9 mph - N/A   Clear
9:55 PM 36.1 °F 30.6 °F 25.9 °F 66% 30.02 in 10.0 mi West 6.9 mph - N/A   Clear
10:15 PM 35.6 °F 28.6 °F 25.7 °F 67% 30.02 in 10.0 mi WNW 9.2 mph - N/A   Clear
10:35 PM 34.9 °F 29.0 °F 25.7 °F 69% 30.02 in 10.0 mi WNW 6.9 mph - N/A   Clear
10:55 PM 33.8 °F 29.6 °F 25.7 °F 72% 30.04 in 10.0 mi West 4.6 mph - N/A   Clear
11:15 PM 33.3 °F 28.9 °F 25.7 °F 74% 30.06 in 10.0 mi WSW 4.6 mph - N/A   Clear
11:35 PM 33.3 °F 28.9 °F 25.7 °F 74% 30.07 in 10.0 mi West 4.6 mph - N/A   Clear
11:55 PM 33.1 °F 28.7 °F 25.9 °F 75% 30.08 in 10.0 mi West 4.6 mph - N/A   Clear